Scottsbluff, NE

12:59 PM MDT on June 28, 2017 (GMT -0600)
Heilig

Weather History for KBFF - September, 2013

Change the Weather History Date:

Wednesday, September 11, 2013

  Actual Average Record
Temperature  
Mean Temperature 66 °F 64 °F  
Max Temperature 71 °F 80 °F 95 °F (2016)
Min Temperature 61 °F 48 °F 33 °F (1974)
Degree Days  
Heating Degree Days 0 4  
Month to date heating degree days 0 28  
Since 1 July heating degree days 2 48  
Cooling Degree Days 1 2  
Month to date cooling degree days 124 38  
Year to date cooling degree days 1016 703  
Growing Degree Days 16 (Base 50)    
Moisture  
Dew Point 59 °F    
Average Humidity 80    
Maximum Humidity 93    
Minimum Humidity 66    
Precipitation  
Precipitation 0.02 in 0.04 in 0.84 in (1924)
Month to date precipitation 0.29 0.44  
Year to date precipitation 8.14 12.74  
Snow  
Snow 0.00 in 0.00 in 0.80 in (1974)
Month to date snowfall 0.0 0.0  
Since 1 July snowfall 0.0 0.0  
Snow Depth 0.00 in    
Sea Level Pressure  
Sea Level Pressure 30.15 in    
Wind  
Wind Speed 4 mph (North)    
Max Wind Speed 12 mph    
Max Gust Speed 15 mph    
Visibility 10 miles    
Events Rain    
T = Trace of Precipitation, MM = Missing Value Source: NWS Daily Summary

Daily Weather History Graph

Daily Weather History Graph

Search for Another Location

Airport or City:

Trip Planner

Search our weather history database for the weather conditions in past years. The results will help you decide how hot, cold, wet, or windy it might be!

Date:

Astronomy

Sep. 11, 2013 Rise Set
Actual Time 6:30 AM MDT 7:10 PM MDT
Civil Twilight 6:02 AM MDT 7:38 PM MDT
Nautical Twilight 5:29 AM MDT 8:11 PM MDT
Astronomical Twilight 4:54 AM MDT 8:45 PM MDT
Moon 1:07 PM MDT (9/11) 11:02 PM MDT (9/11)
Length of Visible Light 13h 35m
Length of Day
12h 39m
Waxing Crescent, 39% of the Moon is Illuminated
Sep 11
Waxing Crescent
Sep 12
First Quarter
Sep 19
Full
Sep 26
Last Quarter
Oct 4
New

Hourly Weather History & Observations

Time (MDT) Temp. Dew Point Humidity Pressure Visibility Wind Dir Wind Speed Gust Speed Precip Events Conditions
12:53 AM 63.0 °F 60.1 °F 90% 30.10 in 10.0 mi Calm Calm - N/A   Overcast
1:53 AM 63.0 °F 60.1 °F 90% 30.11 in 10.0 mi Calm Calm - N/A   Mostly Cloudy
2:53 AM 63.0 °F 57.0 °F 81% 30.11 in 10.0 mi Calm Calm - N/A   Partly Cloudy
3:53 AM 63.0 °F 57.9 °F 84% 30.10 in 10.0 mi NNE 4.6 mph - N/A   Mostly Cloudy
4:53 AM 61.0 °F 57.9 °F 90% 30.11 in 10.0 mi Calm Calm - N/A   Clear
5:53 AM 61.0 °F 57.9 °F 90% 30.13 in 10.0 mi Calm Calm - N/A   Partly Cloudy
6:53 AM 62.1 °F 59.0 °F 90% 30.14 in 9.0 mi Calm Calm - N/A   Partly Cloudy
7:53 AM 63.0 °F - N/A% 30.15 in 10.0 mi Calm Calm - N/A   Overcast
8:53 AM 64.0 °F - N/A% 30.16 in 10.0 mi Calm Calm - 0.00 in Rain Light Rain
9:53 AM 64.9 °F 59.0 °F 81% 30.17 in 10.0 mi ESE 5.8 mph - 0.00 in Rain Light Rain
10:53 AM 66.9 °F 59.0 °F 76% 30.17 in 10.0 mi East 5.8 mph - 0.00 in   Mostly Cloudy
11:53 AM 66.9 °F 60.1 °F 79% 30.18 in 10.0 mi ESE 4.6 mph - N/A   Overcast
12:53 PM 66.0 °F 62.1 °F 87% 30.17 in 7.0 mi Calm Calm - 0.02 in Rain Light Rain
1:53 PM 68.0 °F 62.1 °F 81% 30.16 in 10.0 mi NNW 4.6 mph - 0.00 in Rain Light Rain
2:53 PM 69.1 °F 59.0 °F 70% 30.16 in 10.0 mi North 5.8 mph - 0.00 in Rain Light Rain
3:53 PM 71.1 °F 57.9 °F 63% 30.14 in 10.0 mi North 8.1 mph - 0.00 in   Mostly Cloudy
4:53 PM 70.0 °F 57.0 °F 63% 30.14 in 10.0 mi North 9.2 mph - N/A   Overcast
5:53 PM 70.0 °F 57.0 °F 63% 30.14 in 10.0 mi NNE 6.9 mph - N/A   Overcast
6:53 PM 66.0 °F 60.1 °F 81% 30.15 in 10.0 mi West 8.1 mph - N/A   Overcast
7:53 PM 64.0 °F 59.0 °F 84% 30.17 in 10.0 mi WNW 3.5 mph - N/A   Mostly Cloudy
8:53 PM 63.0 °F 59.0 °F 87% 30.19 in 10.0 mi Calm Calm - N/A   Overcast
9:53 PM 62.1 °F 57.9 °F 86% 30.20 in 10.0 mi WNW 4.6 mph - N/A   Overcast
10:53 PM 62.1 °F 57.9 °F 86% 30.19 in 10.0 mi NW 6.9 mph - N/A   Overcast
11:53 PM 61.0 °F 57.9 °F 90% 30.19 in 10.0 mi NW 6.9 mph - N/A   Overcast